Time,TemperatureF,DewpointF,PressureIn,WindDirection,WindDirectionDegrees,WindSpeedMPH,WindSpeedGustMPH,Humidity,HourlyPrecipIn,Conditions,Clouds,dailyrainin,SolarRadiationWatts/m^2,SoftwareType,DateUTC
2013-07-20 00:00:00,80.7,74.7,30.07,SW,233,18.0,18.0,82,0.00,,CLR,0.00,0.00,VWS V14.01,2013-07-20 04:00:00,
2013-07-20 00:01:00,80.8,74.8,30.07,SW,236,13.0,18.0,82,0.00,,CLR,0.00,0.00,VWS V14.01,2013-07-20 04:01:00,
2013-07-20 00:06:00,80.6,74.6,30.07,SW,233,6.0,12.0,82,0.00,,CLR,0.00,0.00,VWS V14.01,2013-07-20 04:06:00,
2013-07-20 00:11:00,80.6,74.6,30.07,WSW,254,7.0,16.0,82,0.00,,CLR,0.00,0.00,VWS V14.01,2013-07-20 04:11:00,
2013-07-20 00:16:00,80.5,74.9,30.07,SSW,205,6.0,10.0,83,0.00,,CLR,0.00,0.00,VWS V14.01,2013-07-20 04:16:00,
2013-07-20 00:21:00,80.5,74.9,30.07,SW,217,5.0,10.0,83,0.00,,CLR,0.00,0.00,VWS V14.01,2013-07-20 04:21:00,
2013-07-20 00:26:00,80.4,74.8,30.07,SSW,198,7.0,13.0,83,0.00,,CLR,0.00,0.00,VWS V14.01,2013-07-20 04:26:00,
2013-07-20 00:31:00,80.4,74.8,30.07,SW,228,11.0,11.0,83,0.00,,CLR,0.00,0.00,VWS V14.01,2013-07-20 04:31:00,
2013-07-20 00:36:00,80.3,74.7,30.08,WSW,255,7.0,13.0,83,0.00,,CLR,0.00,0.00,VWS V14.01,2013-07-20 04:36:00,
2013-07-20 00:41:00,80.3,74.7,30.07,SW,223,8.0,12.0,83,0.00,,CLR,0.00,0.00,VWS V14.01,2013-07-20 04:41:00,
2013-07-20 00:46:00,80.3,75.0,30.07,SSW,213,7.0,12.0,84,0.00,,CLR,0.00,0.00,VWS V14.01,2013-07-20 04:46:00,
2013-07-20 00:51:00,80.2,74.6,30.07,South,182,6.0,10.0,83,0.00,,CLR,0.00,0.00,VWS V14.01,2013-07-20 04:51:00,
2013-07-20 00:56:00,80.2,74.6,30.07,SSW,212,7.0,14.0,83,0.00,,CLR,0.00,0.00,VWS V14.01,2013-07-20 04:56:00,
2013-07-20 01:01:00,80.1,74.5,30.07,SSW,202,6.0,10.0,83,0.00,,CLR,0.00,0.00,VWS V14.01,2013-07-20 05:01:00,
2013-07-20 01:06:00,80.1,74.5,30.06,SW,231,11.0,11.0,83,0.00,,CLR,0.00,0.00,VWS V14.01,2013-07-20 05:06:00,
2013-07-20 01:11:00,80.1,74.5,30.07,WSW,257,6.0,10.0,83,0.00,,CLR,0.00,0.00,VWS V14.01,2013-07-20 05:11:00,
2013-07-20 01:16:00,80.0,74.4,30.07,SSW,207,7.0,12.0,83,0.00,,CLR,0.00,0.00,VWS V14.01,2013-07-20 05:16:00,
2013-07-20 01:21:00,80.0,74.7,30.07,SW,225,7.0,13.0,84,0.00,,CLR,0.00,0.00,VWS V14.01,2013-07-20 05:21:00,
2013-07-20 01:26:00,79.9,74.6,30.07,WSW,240,8.0,13.0,84,0.00,,CLR,0.00,0.00,VWS V14.01,2013-07-20 05:26:00,
2013-07-20 01:31:00,79.9,74.6,30.07,SW,225,8.0,8.0,84,0.00,,CLR,0.00,0.00,VWS V14.01,2013-07-20 05:31:00,
2013-07-20 01:36:00,79.9,74.6,30.07,WSW,246,5.0,12.0,84,0.00,,CLR,0.00,0.00,VWS V14.01,2013-07-20 05:36:00,
2013-07-20 01:41:00,79.9,74.6,30.07,SW,215,5.0,10.0,84,0.00,,CLR,0.00,0.00,VWS V14.01,2013-07-20 05:41:00,
2013-07-20 01:46:00,79.8,74.5,30.07,SW,227,6.0,10.0,84,0.00,,CLR,0.00,0.00,VWS V14.01,2013-07-20 05:46:00,
2013-07-20 01:51:00,79.8,74.5,30.06,SW,217,5.0,9.0,84,0.00,,CLR,0.00,0.00,VWS V14.01,2013-07-20 05:51:00,
2013-07-20 01:56:00,79.8,74.5,30.07,West,263,4.0,10.0,84,0.00,,CLR,0.00,0.00,VWS V14.01,2013-07-20 05:56:00,
2013-07-20 02:01:00,79.8,74.9,30.06,WSW,252,8.0,12.0,85,0.00,,CLR,0.00,0.00,VWS V14.01,2013-07-20 06:01:00,
2013-07-20 02:06:00,79.8,74.9,30.06,SW,232,14.0,14.0,85,0.00,,CLR,0.00,0.00,VWS V14.01,2013-07-20 06:06:00,
2013-07-20 02:11:00,79.9,75.0,30.07,SW,216,9.0,13.0,85,0.00,,CLR,0.00,0.00,VWS V14.01,2013-07-20 06:11:00,
2013-07-20 02:16:00,80.0,75.1,30.06,SW,224,5.0,16.0,85,0.00,,CLR,0.00,0.00,VWS V14.01,2013-07-20 06:16:00,
2013-07-20 02:21:00,80.0,75.1,30.06,SSW,205,8.0,19.0,85,0.00,,CLR,0.00,0.00,VWS V14.01,2013-07-20 06:21:00,
2013-07-20 02:26:00,80.1,75.2,30.06,SW,221,8.0,12.0,85,0.00,,CLR,0.00,0.00,VWS V14.01,2013-07-20 06:26:00,
2013-07-20 02:31:00,80.1,74.8,30.06,SW,234,8.0,14.0,84,0.00,,CLR,0.00,0.00,VWS V14.01,2013-07-20 06:31:00,
2013-07-20 02:36:00,80.1,74.8,30.05,SSW,207,6.0,15.0,84,0.00,,CLR,0.00,0.00,VWS V14.01,2013-07-20 06:36:00,
2013-07-20 02:41:00,80.2,74.9,30.05,SW,225,7.0,13.0,84,0.00,,CLR,0.00,0.00,VWS V14.01,2013-07-20 06:41:00,
2013-07-20 02:46:00,80.2,74.9,30.05,SW,221,11.0,13.0,84,0.00,,CLR,0.00,0.00,VWS V14.01,2013-07-20 06:46:00,
2013-07-20 02:51:00,80.2,74.9,30.05,SW,229,8.0,22.0,84,0.00,,CLR,0.00,0.00,VWS V14.01,2013-07-20 06:51:00,
2013-07-20 02:56:00,80.3,74.7,30.05,SW,234,9.0,14.0,83,0.00,,CLR,0.00,0.00,VWS V14.01,2013-07-20 06:56:00,
2013-07-20 03:01:00,80.3,74.7,30.05,SW,230,7.0,14.0,83,0.00,,FEW023,0.00,0.00,VWS V14.01,2013-07-20 07:01:00,
2013-07-20 03:06:00,80.4,75.5,30.05,SW,215,12.0,16.0,85,0.00,,FEW023,0.00,0.00,VWS V14.01,2013-07-20 07:06:00,
2013-07-20 03:11:00,80.3,75.7,30.05,SSW,197,22.0,22.0,86,0.00,,FEW023,0.00,0.00,VWS V14.01,2013-07-20 07:11:00,
2013-07-20 03:16:00,80.1,75.5,30.05,SSW,213,10.0,29.0,86,0.00,,FEW023,0.00,0.00,VWS V14.01,2013-07-20 07:16:00,
2013-07-20 03:21:00,79.8,75.2,30.05,SSW,196,10.0,20.0,86,0.00,,SCT023,0.00,0.00,VWS V14.01,2013-07-20 07:21:00,
2013-07-20 03:26:00,79.6,74.7,30.05,SSW,209,17.0,17.0,85,0.00,,SCT023,0.00,0.00,VWS V14.01,2013-07-20 07:26:00,
2013-07-20 03:31:00,79.6,74.7,30.05,WSW,247,12.0,19.0,85,0.00,,SCT023,0.00,0.00,VWS V14.01,2013-07-20 07:31:00,
2013-07-20 03:36:00,79.5,74.9,30.05,SSW,213,14.0,19.0,86,0.00,,SCT023,0.00,0.00,VWS V14.01,2013-07-20 07:36:00,
2013-07-20 03:41:00,79.4,74.8,30.05,SSW,211,8.0,15.0,86,0.00,,FEW018,0.00,0.00,VWS V14.01,2013-07-20 07:41:00,
2013-07-20 03:46:00,79.2,74.7,30.05,SW,218,10.0,15.0,86,0.00,,FEW018,0.00,0.00,VWS V14.01,2013-07-20 07:46:00,
2013-07-20 03:51:00,79.0,74.5,30.05,WSW,244,12.0,17.0,86,0.00,,FEW018,0.00,0.00,VWS V14.01,2013-07-20 07:51:00,
2013-07-20 03:56:00,78.9,74.4,30.05,SW,215,13.0,14.0,86,0.00,,FEW018,0.00,0.00,VWS V14.01,2013-07-20 07:56:00,
2013-07-20 04:01:00,78.9,74.4,30.05,West,265,14.0,14.0,86,0.00,,CLR,0.00,0.00,VWS V14.01,2013-07-20 08:01:00,
2013-07-20 04:06:00,79.0,74.5,30.05,SW,233,10.0,12.0,86,0.00,,CLR,0.00,0.00,VWS V14.01,2013-07-20 08:06:00,
2013-07-20 04:11:00,78.9,74.4,30.04,SSW,202,5.0,16.0,86,0.00,,CLR,0.00,0.00,VWS V14.01,2013-07-20 08:11:00,
2013-07-20 04:16:00,79.0,74.5,30.04,SSW,211,11.0,17.0,86,0.00,,CLR,0.00,0.00,VWS V14.01,2013-07-20 08:16:00,
2013-07-20 04:21:00,79.1,74.2,30.04,West,274,7.0,15.0,85,0.00,,CLR,0.00,0.00,VWS V14.01,2013-07-20 08:21:00,
2013-07-20 04:26:00,79.1,74.2,30.05,WSW,246,7.0,16.0,85,0.00,,CLR,0.00,0.00,VWS V14.01,2013-07-20 08:26:00,
2013-07-20 04:31:00,79.2,74.3,30.05,SW,227,7.0,11.0,85,0.00,,CLR,0.00,0.00,VWS V14.01,2013-07-20 08:31:00,
2013-07-20 04:36:00,79.3,74.4,30.05,SW,224,9.0,17.0,85,0.00,,CLR,0.00,0.00,VWS V14.01,2013-07-20 08:36:00,
2013-07-20 04:41:00,79.3,74.4,30.05,SW,230,14.0,18.0,85,0.00,,CLR,0.00,0.00,VWS V14.01,2013-07-20 08:41:00,
2013-07-20 04:46:00,79.3,74.4,30.05,SW,226,9.0,16.0,85,0.00,,CLR,0.00,0.00,VWS V14.01,2013-07-20 08:46:00,
2013-07-20 04:51:00,79.2,74.3,30.05,SSW,202,12.0,17.0,85,0.00,,CLR,0.00,0.00,VWS V14.01,2013-07-20 08:51:00,
2013-07-20 04:56:00,79.2,73.9,30.05,SW,234,8.0,21.0,84,0.00,,CLR,0.00,0.00,VWS V14.01,2013-07-20 08:56:00,
2013-07-20 05:01:00,79.2,73.6,30.05,SW,230,13.0,16.0,83,0.00,,SCT048,0.00,0.00,VWS V14.01,2013-07-20 09:01:00,
2013-07-20 05:06:00,79.2,73.9,30.05,SW,215,18.0,18.0,84,0.00,,SCT048,0.00,0.00,VWS V14.01,2013-07-20 09:06:00,
2013-07-20 05:11:00,79.1,73.5,30.05,SSW,212,7.0,16.0,83,0.00,,SCT048,0.00,0.00,VWS V14.01,2013-07-20 09:11:00,
2013-07-20 05:16:00,79.0,73.4,30.05,SW,223,11.0,16.0,83,0.00,,SCT048,0.00,0.00,VWS V14.01,2013-07-20 09:16:00,
2013-07-20 05:21:00,78.9,73.3,30.05,South,190,12.0,14.0,83,0.00,,SCT050,0.00,0.00,VWS V14.01,2013-07-20 09:21:00,
2013-07-20 05:26:00,78.8,73.6,30.05,SW,220,11.0,14.0,84,0.00,,SCT050,0.00,0.00,VWS V14.01,2013-07-20 09:26:00,
2013-07-20 05:31:00,78.7,73.5,30.05,WSW,254,6.0,13.0,84,0.00,,SCT050,0.00,0.00,VWS V14.01,2013-07-20 09:31:00,
2013-07-20 05:36:00,78.6,73.0,30.05,SW,221,5.0,14.0,83,0.00,,SCT050,0.00,0.00,VWS V14.01,2013-07-20 09:36:00,
2013-07-20 05:41:00,78.5,72.9,30.05,SW,219,7.0,15.0,83,0.00,,FEW080,0.00,0.00,VWS V14.01,2013-07-20 09:41:00,
2013-07-20 05:46:00,78.5,73.3,30.05,SSW,202,9.0,11.0,84,0.00,,FEW080,0.00,0.00,VWS V14.01,2013-07-20 09:46:00,
2013-07-20 05:51:00,78.3,73.1,30.05,WSW,252,6.0,10.0,84,0.00,,FEW080,0.00,0.00,VWS V14.01,2013-07-20 09:51:00,
2013-07-20 05:56:00,78.2,73.0,30.05,SW,217,8.0,10.0,84,0.00,,FEW080,0.00,0.00,VWS V14.01,2013-07-20 09:56:00,
2013-07-20 06:01:00,78.0,72.4,30.05,SSW,213,5.0,9.0,83,0.00,,SCT080,0.00,0.00,VWS V14.01,2013-07-20 10:01:00,
2013-07-20 06:06:00,77.9,72.3,30.05,WSW,252,3.0,8.0,83,0.00,,SCT080,0.00,0.00,VWS V14.01,2013-07-20 10:06:00,
2013-07-20 06:11:00,77.8,72.2,30.05,SSW,213,4.0,7.0,83,0.00,,SCT080,0.00,0.00,VWS V14.01,2013-07-20 10:11:00,
2013-07-20 06:16:00,77.7,72.1,30.05,SSW,210,5.0,6.0,83,0.00,,SCT080,0.00,0.00,VWS V14.01,2013-07-20 10:16:00,
2013-07-20 06:21:00,77.6,72.0,30.05,WSW,246,3.0,5.0,83,0.00,,SCT080,0.00,5.00,VWS V14.01,2013-07-20 10:21:00,
2013-07-20 06:26:00,77.4,72.2,30.05,SSW,208,5.0,5.0,84,0.00,,SCT080,0.00,7.00,VWS V14.01,2013-07-20 10:26:00,
2013-07-20 06:31:00,77.3,72.1,30.05,SW,222,5.0,8.0,84,0.00,,SCT080,0.00,11.00,VWS V14.01,2013-07-20 10:31:00,
2013-07-20 06:36:00,77.3,72.1,30.05,SW,221,5.0,7.0,84,0.00,,SCT080,0.00,12.00,VWS V14.01,2013-07-20 10:36:00,
2013-07-20 06:41:00,77.2,72.0,30.05,SSW,208,4.0,6.0,84,0.00,,SCT080,0.00,18.00,VWS V14.01,2013-07-20 10:41:00,
2013-07-20 06:46:00,77.1,72.2,30.05,WSW,246,2.0,5.0,85,0.00,,SCT080,0.00,25.00,VWS V14.01,2013-07-20 10:46:00,
2013-07-20 06:51:00,77.0,72.2,30.05,West,261,3.0,6.0,85,0.00,,SCT080,0.00,35.00,VWS V14.01,2013-07-20 10:51:00,
2013-07-20 06:56:00,77.1,72.2,30.05,SSW,213,3.0,5.0,85,0.00,,SCT080,0.00,46.00,VWS V14.01,2013-07-20 10:56:00,
2013-07-20 07:01:00,77.3,72.4,30.05,WSW,257,3.0,5.0,85,0.00,,CLR,0.00,65.00,VWS V14.01,2013-07-20 11:01:00,
2013-07-20 07:06:00,77.5,72.6,30.05,SW,219,8.0,8.0,85,0.00,,CLR,0.00,83.00,VWS V14.01,2013-07-20 11:06:00,
2013-07-20 07:11:00,77.7,72.5,30.05,West,260,5.0,6.0,84,0.00,,CLR,0.00,90.00,VWS V14.01,2013-07-20 11:11:00,
2013-07-20 07:16:00,77.8,72.6,30.05,West,276,5.0,7.0,84,0.00,,CLR,0.00,116.00,VWS V14.01,2013-07-20 11:16:00,
2013-07-20 07:21:00,78.1,72.9,30.06,SW,225,2.0,9.0,84,0.00,,CLR,0.00,63.00,VWS V14.01,2013-07-20 11:21:00,
2013-07-20 07:26:00,78.2,73.0,30.06,SW,229,4.0,8.0,84,0.00,,CLR,0.00,156.00,VWS V14.01,2013-07-20 11:26:00,
2013-07-20 07:31:00,78.5,73.3,30.06,SW,234,3.0,7.0,84,0.00,,CLR,0.00,172.00,VWS V14.01,2013-07-20 11:31:00,
2013-07-20 07:36:00,78.8,73.2,30.06,SW,231,5.0,7.0,83,0.00,,CLR,0.00,171.00,VWS V14.01,2013-07-20 11:36:00,
2013-07-20 07:41:00,79.1,73.5,30.06,SW,223,3.0,5.0,83,0.00,,CLR,0.00,223.00,VWS V14.01,2013-07-20 11:41:00,
2013-07-20 07:46:00,79.4,73.8,30.06,WSW,252,6.0,6.0,83,0.00,,CLR,0.00,267.00,VWS V14.01,2013-07-20 11:46:00,
2013-07-20 07:51:00,79.5,73.9,30.06,WSW,241,6.0,7.0,83,0.00,,CLR,0.00,128.00,VWS V14.01,2013-07-20 11:51:00,
2013-07-20 07:56:00,79.6,74.0,30.06,SW,215,5.0,7.0,83,0.00,,CLR,0.00,243.00,VWS V14.01,2013-07-20 11:56:00,
2013-07-20 08:01:00,79.8,74.2,30.06,SW,218,7.0,7.0,83,0.00,,CLR,0.00,174.00,VWS V14.01,2013-07-20 12:01:00,
2013-07-20 08:06:00,80.0,74.4,30.06,SW,221,3.0,8.0,83,0.00,,CLR,0.00,132.00,VWS V14.01,2013-07-20 12:06:00,
2013-07-20 08:11:00,79.9,74.3,30.06,WSW,248,6.0,10.0,83,0.00,,CLR,0.00,125.00,VWS V14.01,2013-07-20 12:11:00,
2013-07-20 08:16:00,79.7,74.4,30.06,SSW,211,7.0,10.0,84,0.00,,CLR,0.00,125.00,VWS V14.01,2013-07-20 12:16:00,
2013-07-20 08:21:00,79.7,74.4,30.07,SW,218,8.0,9.0,84,0.00,,CLR,0.00,116.00,VWS V14.01,2013-07-20 12:21:00,
2013-07-20 08:26:00,79.7,74.4,30.07,SW,225,5.0,8.0,84,0.00,,CLR,0.00,239.00,VWS V14.01,2013-07-20 12:26:00,
2013-07-20 08:31:00,80.0,74.7,30.07,SSW,199,5.0,6.0,84,0.00,,CLR,0.00,359.00,VWS V14.01,2013-07-20 12:31:00,
2013-07-20 08:36:00,80.8,74.8,30.07,SW,229,7.0,11.0,82,0.00,,CLR,0.00,406.00,VWS V14.01,2013-07-20 12:36:00,
2013-07-20 08:41:00,81.2,75.6,30.06,SW,227,8.0,8.0,83,0.00,,CLR,0.00,339.00,VWS V14.01,2013-07-20 12:41:00,
2013-07-20 08:46:00,81.6,75.2,30.07,SW,223,5.0,10.0,81,0.00,,CLR,0.00,425.00,VWS V14.01,2013-07-20 12:46:00,
2013-07-20 08:51:00,81.7,75.3,30.07,WSW,240,7.0,12.0,81,0.00,,CLR,0.00,450.00,VWS V14.01,2013-07-20 12:51:00,
2013-07-20 08:56:00,81.9,75.1,30.07,WSW,238,5.0,11.0,80,0.00,,CLR,0.00,482.00,VWS V14.01,2013-07-20 12:56:00,
2013-07-20 09:01:00,82.0,75.2,30.07,WSW,238,13.0,13.0,80,0.00,,CLR,0.00,524.00,VWS V14.01,2013-07-20 13:01:00,
2013-07-20 09:06:00,82.1,75.3,30.07,SW,233,12.0,13.0,80,0.00,,CLR,0.00,540.00,VWS V14.01,2013-07-20 13:06:00,
2013-07-20 09:11:00,82.2,75.4,30.07,WNW,303,4.0,12.0,80,0.00,,CLR,0.00,199.00,VWS V14.01,2013-07-20 13:11:00,
2013-07-20 09:16:00,82.1,75.3,30.07,SW,215,10.0,10.0,80,0.00,,CLR,0.00,192.00,VWS V14.01,2013-07-20 13:16:00,
2013-07-20 09:21:00,81.8,75.0,30.07,SSW,211,7.0,11.0,80,0.00,,BKN017,0.00,190.00,VWS V14.01,2013-07-20 13:21:00,
2013-07-20 09:26:00,81.5,74.7,30.07,SW,229,4.0,9.0,80,0.00,,BKN017,0.00,227.00,VWS V14.01,2013-07-20 13:26:00,
2013-07-20 09:31:00,81.7,75.3,30.07,SW,221,4.0,6.0,81,0.00,,BKN017,0.00,369.00,VWS V14.01,2013-07-20 13:31:00,
2013-07-20 09:36:00,82.0,75.6,30.07,SW,215,2.0,7.0,81,0.00,,BKN017,0.00,274.00,VWS V14.01,2013-07-20 13:36:00,
2013-07-20 09:41:00,82.7,75.5,30.07,WSW,250,2.0,8.0,79,0.00,,BKN017,0.00,649.00,VWS V14.01,2013-07-20 13:41:00,
2013-07-20 09:46:00,83.8,75.8,30.07,WSW,254,4.0,11.0,77,0.00,,BKN017,0.00,805.00,VWS V14.01,2013-07-20 13:46:00,
2013-07-20 09:51:00,84.2,75.8,30.07,NW,326,4.0,10.0,76,0.00,,BKN017,0.00,805.00,VWS V14.01,2013-07-20 13:51:00,
2013-07-20 09:56:00,84.6,75.8,30.07,SW,229,6.0,7.0,75,0.00,,BKN017,0.00,260.00,VWS V14.01,2013-07-20 13:56:00,
2013-07-20 10:01:00,84.6,75.0,30.07,SW,222,6.0,10.0,73,0.00,,BKN020,0.00,761.00,VWS V14.01,2013-07-20 14:01:00,
2013-07-20 10:06:00,84.5,74.9,30.07,SW,217,7.0,11.0,73,0.00,,BKN020,0.00,483.00,VWS V14.01,2013-07-20 14:06:00,
2013-07-20 10:11:00,84.8,74.8,30.07,WSW,254,3.0,11.0,72,0.00,,BKN020,0.00,816.00,VWS V14.01,2013-07-20 14:11:00,
2013-07-20 10:16:00,85.1,75.5,30.07,SSW,213,3.0,8.0,73,0.00,,BKN020,0.00,352.00,VWS V14.01,2013-07-20 14:16:00,
2013-07-20 10:21:00,84.8,75.2,30.07,SW,227,3.0,8.0,73,0.00,,BKN020,0.00,155.00,VWS V14.01,2013-07-20 14:21:00,
2013-07-20 10:26:00,84.5,75.3,30.07,WNW,298,2.0,6.0,74,0.00,,BKN020,0.00,239.00,VWS V14.01,2013-07-20 14:26:00,
2013-07-20 10:31:00,84.8,75.6,30.07,WSW,238,0.0,8.0,74,0.00,,BKN020,0.00,840.00,VWS V14.01,2013-07-20 14:31:00,
2013-07-20 10:36:00,84.8,75.2,30.07,SW,234,5.0,7.0,73,0.00,,BKN020,0.00,227.00,VWS V14.01,2013-07-20 14:36:00,
2013-07-20 10:41:00,84.3,74.3,30.07,SW,222,7.0,10.0,72,0.00,,BKN020,0.00,232.00,VWS V14.01,2013-07-20 14:41:00,
2013-07-20 10:46:00,84.1,74.1,30.07,WSW,238,9.0,10.0,72,0.00,,BKN020,0.00,271.00,VWS V14.01,2013-07-20 14:46:00,
2013-07-20 10:50:00,84.1,74.1,30.06,SW,231,7.0,10.0,72,0.00,,BKN020,0.00,165.00,VWS V14.01,2013-07-20 14:50:00,
2013-07-20 10:55:00,84.1,73.7,30.07,West,263,5.0,9.0,71,0.00,,BKN020,0.00,285.00,VWS V14.01,2013-07-20 14:55:00,
2013-07-20 11:00:00,84.3,73.9,30.07,SSW,210,7.0,8.0,71,0.00,,BKN025,0.00,396.00,VWS V14.01,2013-07-20 15:00:00,
2013-07-20 11:05:00,84.7,74.3,30.07,SW,221,5.0,8.0,71,0.00,,BKN025,0.00,295.00,VWS V14.01,2013-07-20 15:05:00,
2013-07-20 11:10:00,84.8,73.9,30.06,SW,228,10.0,10.0,70,0.00,,BKN025,0.00,338.00,VWS V14.01,2013-07-20 15:10:00,
2013-07-20 11:15:00,84.9,74.0,30.06,SW,232,5.0,9.0,70,0.00,,BKN025,0.00,482.00,VWS V14.01,2013-07-20 15:15:00,
2013-07-20 11:20:00,84.8,75.6,30.07,SW,222,4.0,7.0,74,0.00,,BKN025,0.00,561.00,VWS V14.01,2013-07-20 15:20:00,
2013-07-20 11:25:00,84.8,74.8,30.07,SW,219,8.0,11.0,72,0.00,,BKN025,0.00,520.00,VWS V14.01,2013-07-20 15:25:00,
2013-07-20 11:30:00,85.1,74.6,30.07,South,184,6.0,11.0,71,0.00,,BKN025,0.00,1092.00,VWS V14.01,2013-07-20 15:30:00,
2013-07-20 11:35:00,85.7,74.4,30.06,SW,233,12.0,15.0,69,0.00,,BKN025,0.00,1176.00,VWS V14.01,2013-07-20 15:35:00,
2013-07-20 11:40:00,86.4,75.9,30.06,SSW,200,7.0,12.0,71,0.00,,BKN025,0.00,1039.00,VWS V14.01,2013-07-20 15:40:00,
2013-07-20 11:45:00,86.9,75.5,30.06,SSW,192,7.0,10.0,69,0.00,,BKN025,0.00,420.00,VWS V14.01,2013-07-20 15:45:00,
2013-07-20 11:46:00,86.9,75.5,30.06,SW,222,6.0,10.0,69,0.00,,BKN025,0.00,420.00,VWS V14.01,2013-07-20 15:46:00,
2013-07-20 11:51:00,86.1,75.2,30.07,SSW,202,12.0,18.0,70,0.00,,BKN025,0.00,200.00,VWS V14.01,2013-07-20 15:51:00,
2013-07-20 11:56:00,83.3,74.6,30.08,SSW,192,7.0,17.0,75,0.02,,BKN025,0.02,146.00,VWS V14.01,2013-07-20 15:56:00,
2013-07-20 12:01:00,80.1,73.4,30.07,WSW,257,3.0,11.0,80,0.06,,BKN065,0.06,299.00,VWS V14.01,2013-07-20 16:01:00,
2013-07-20 12:06:00,79.1,74.2,30.08,West,262,7.0,11.0,85,0.06,,BKN065,0.06,262.00,VWS V14.01,2013-07-20 16:06:00,
2013-07-20 12:11:00,78.7,74.8,30.08,SSW,208,5.0,14.0,88,0.07,,RA,0.07,251.00,VWS V14.01,2013-07-20 16:11:00,
2013-07-20 12:16:00,78.4,74.9,30.08,SW,228,3.0,11.0,89,0.08,,RA,0.08,274.00,VWS V14.01,2013-07-20 16:16:00,
2013-07-20 12:21:00,78.3,74.5,30.07,SSW,212,7.0,13.0,88,0.08,,RA,0.08,315.00,VWS V14.01,2013-07-20 16:21:00,
2013-07-20 12:26:00,78.4,74.9,30.07,SW,227,8.0,12.0,89,0.08,,RA,0.08,329.00,VWS V14.01,2013-07-20 16:26:00,
2013-07-20 12:31:00,78.5,75.0,30.07,SW,229,6.0,10.0,89,0.08,,RA,0.08,353.00,VWS V14.01,2013-07-20 16:31:00,
2013-07-20 12:36:00,78.7,74.8,30.07,SSW,193,5.0,9.0,88,0.08,,RA,0.08,381.00,VWS V14.01,2013-07-20 16:36:00,
2013-07-20 12:41:00,78.9,75.4,30.07,WSW,238,5.0,9.0,89,0.08,,BKN060,0.08,304.00,VWS V14.01,2013-07-20 16:41:00,
2013-07-20 12:46:00,78.9,75.4,30.06,SSW,205,7.0,8.0,89,0.08,,BKN060,0.08,292.00,VWS V14.01,2013-07-20 16:46:00,
2013-07-20 12:51:00,79.2,75.7,30.06,SW,219,4.0,10.0,89,0.08,,BKN060,0.08,485.00,VWS V14.01,2013-07-20 16:51:00,
2013-07-20 12:56:00,79.4,75.5,30.06,SW,221,9.0,12.0,88,0.07,,BKN060,0.08,585.00,VWS V14.01,2013-07-20 16:56:00,
2013-07-20 13:01:00,80.0,75.8,30.06,SSW,207,4.0,12.0,87,0.06,,SCT025,0.08,810.00,VWS V14.01,2013-07-20 17:01:00,
2013-07-20 13:06:00,80.5,74.1,30.05,SW,224,10.0,12.0,81,0.02,,SCT025,0.08,851.00,VWS V14.01,2013-07-20 17:06:00,
2013-07-20 13:11:00,80.6,74.2,30.05,SW,220,8.0,11.0,81,0.01,,SCT025,0.08,911.00,VWS V14.01,2013-07-20 17:11:00,
2013-07-20 13:16:00,81.0,74.2,30.05,SSW,204,7.0,17.0,80,0.00,,SCT025,0.08,928.00,VWS V14.01,2013-07-20 17:16:00,
2013-07-20 13:21:00,81.8,75.4,30.05,SSW,211,7.0,14.0,81,0.00,,SCT025,0.08,916.00,VWS V14.01,2013-07-20 17:21:00,
2013-07-20 13:26:00,82.5,75.3,30.05,South,190,15.0,15.0,79,0.00,,SCT025,0.08,911.00,VWS V14.01,2013-07-20 17:26:00,
2013-07-20 13:31:00,83.2,76.0,30.04,SW,229,14.0,17.0,79,0.00,,SCT025,0.08,911.00,VWS V14.01,2013-07-20 17:31:00,
2013-07-20 13:36:00,83.4,75.4,30.04,SSW,198,9.0,19.0,77,0.00,,SCT025,0.08,911.00,VWS V14.01,2013-07-20 17:36:00,
2013-07-20 13:41:00,83.4,75.1,30.04,SW,219,15.0,18.0,76,0.00,,SCT025,0.08,963.00,VWS V14.01,2013-07-20 17:41:00,
2013-07-20 13:46:00,83.4,75.4,30.04,SSW,211,9.0,15.0,77,0.00,,SCT025,0.08,942.00,VWS V14.01,2013-07-20 17:46:00,
2013-07-20 13:51:00,83.8,75.4,30.03,WSW,245,12.0,16.0,76,0.00,,SCT025,0.08,969.00,VWS V14.01,2013-07-20 17:51:00,
2013-07-20 13:55:00,84.0,76.0,30.03,SSW,204,6.0,19.0,77,0.00,,SCT025,0.08,965.00,VWS V14.01,2013-07-20 17:55:00,
2013-07-20 14:00:00,83.9,75.1,30.03,SSW,213,11.0,18.0,75,0.00,,SCT025,0.08,949.00,VWS V14.01,2013-07-20 18:00:00,
2013-07-20 14:05:00,83.6,75.2,30.03,SSW,199,11.0,16.0,76,0.00,,SCT025,0.08,939.00,VWS V14.01,2013-07-20 18:05:00,
2013-07-20 14:06:00,83.6,75.2,30.03,SW,219,10.0,16.0,76,0.00,,SCT025,0.08,939.00,VWS V14.01,2013-07-20 18:06:00,
2013-07-20 14:11:00,84.3,75.9,30.02,South,171,8.0,14.0,76,0.00,,SCT025,0.08,933.00,VWS V14.01,2013-07-20 18:11:00,
2013-07-20 14:16:00,84.0,76.0,30.02,SSW,213,7.0,16.0,77,0.00,,SCT025,0.08,930.00,VWS V14.01,2013-07-20 18:16:00,
2013-07-20 14:21:00,83.6,75.6,30.02,SW,230,6.0,16.0,77,0.00,,SCT025,0.08,925.00,VWS V14.01,2013-07-20 18:21:00,
2013-07-20 14:26:00,83.4,75.4,30.02,SSW,193,10.0,16.0,77,0.00,,SCT025,0.08,914.00,VWS V14.01,2013-07-20 18:26:00,
2013-07-20 14:31:00,83.4,74.7,30.02,SSW,200,15.0,15.0,75,0.00,,SCT025,0.08,912.00,VWS V14.01,2013-07-20 18:31:00,
2013-07-20 14:36:00,83.6,74.8,30.02,SSW,203,7.0,14.0,75,0.00,,SCT025,0.08,905.00,VWS V14.01,2013-07-20 18:36:00,
2013-07-20 14:41:00,84.1,74.9,30.02,SW,227,10.0,15.0,74,0.00,,SCT025,0.08,898.00,VWS V14.01,2013-07-20 18:41:00,
2013-07-20 14:46:00,83.7,74.5,30.02,South,190,14.0,16.0,74,0.00,,SCT025,0.08,891.00,VWS V14.01,2013-07-20 18:46:00,
2013-07-20 14:51:00,83.7,74.5,30.01,SW,227,9.0,16.0,74,0.00,,SCT025,0.08,884.00,VWS V14.01,2013-07-20 18:51:00,
2013-07-20 14:56:00,83.7,74.1,30.01,SSW,194,8.0,17.0,73,0.00,,SCT025,0.08,875.00,VWS V14.01,2013-07-20 18:56:00,
2013-07-20 15:02:00,83.8,74.2,30.01,SSW,213,8.0,10.0,73,0.00,,SCT025,0.08,870.00,VWS V14.01,2013-07-20 19:02:00,
2013-07-20 15:07:00,83.9,74.7,30.01,SW,224,11.0,13.0,74,0.00,,SCT025,0.08,860.00,VWS V14.01,2013-07-20 19:07:00,
2013-07-20 15:12:00,84.2,75.4,30.01,SSW,209,8.0,11.0,75,0.00,,SCT025,0.08,858.00,VWS V14.01,2013-07-20 19:12:00,
2013-07-20 15:17:00,84.7,74.7,30.01,SW,233,12.0,12.0,72,0.00,,SCT025,0.08,851.00,VWS V14.01,2013-07-20 19:17:00,
2013-07-20 15:23:00,85.0,75.0,30.01,SW,232,11.0,15.0,72,0.00,,SCT025,0.08,772.00,VWS V14.01,2013-07-20 19:23:00,
2013-07-20 15:28:00,85.1,75.1,30.00,SW,215,14.0,18.0,72,0.00,,SCT025,0.08,821.00,VWS V14.01,2013-07-20 19:28:00,
2013-07-20 15:33:00,84.8,75.6,30.00,SW,226,11.0,17.0,74,0.00,,SCT025,0.08,809.00,VWS V14.01,2013-07-20 19:33:00,
2013-07-20 15:38:00,84.6,75.4,30.00,WSW,257,16.0,16.0,74,0.00,,SCT025,0.08,802.00,VWS V14.01,2013-07-20 19:38:00,
2013-07-20 15:43:00,84.7,75.1,30.00,WSW,248,12.0,14.0,73,0.00,,SCT025,0.08,791.00,VWS V14.01,2013-07-20 19:43:00,
2013-07-20 15:48:00,84.8,75.2,30.00,SSW,200,15.0,17.0,73,0.00,,SCT025,0.08,775.00,VWS V14.01,2013-07-20 19:48:00,
2013-07-20 15:53:00,84.5,74.9,30.00,SW,221,12.0,19.0,73,0.00,,SCT025,0.08,752.00,VWS V14.01,2013-07-20 19:53:00,
2013-07-20 15:58:00,84.4,75.2,30.00,SW,223,13.0,21.0,74,0.00,,SCT025,0.08,763.00,VWS V14.01,2013-07-20 19:58:00,
2013-07-20 16:03:00,84.4,75.2,30.00,SW,226,20.0,20.0,74,0.00,,SCT090,0.08,817.00,VWS V14.01,2013-07-20 20:03:00,
2013-07-20 16:08:00,84.2,75.4,30.00,WSW,237,10.0,19.0,75,0.00,,SCT090,0.08,870.00,VWS V14.01,2013-07-20 20:08:00,
2013-07-20 16:13:00,84.2,75.4,30.00,SSW,210,8.0,20.0,75,0.00,,SCT090,0.08,594.00,VWS V14.01,2013-07-20 20:13:00,
2013-07-20 16:18:00,83.6,74.8,30.00,SW,225,12.0,15.0,75,0.00,,SCT090,0.08,148.00,VWS V14.01,2013-07-20 20:18:00,
2013-07-20 16:23:00,83.1,74.4,29.99,SW,217,17.0,22.0,75,0.00,,SCT090,0.08,200.00,VWS V14.01,2013-07-20 20:23:00,
2013-07-20 16:28:00,82.9,74.2,29.99,SW,234,13.0,17.0,75,0.00,,SCT090,0.08,279.00,VWS V14.01,2013-07-20 20:28:00,
2013-07-20 16:33:00,82.9,73.8,29.99,SW,229,18.0,18.0,74,0.00,,SCT090,0.08,265.00,VWS V14.01,2013-07-20 20:33:00,
2013-07-20 16:38:00,82.9,74.2,29.99,SSW,203,9.0,18.0,75,0.00,,SCT090,0.08,234.00,VWS V14.01,2013-07-20 20:38:00,
2013-07-20 16:43:00,82.9,74.9,29.99,SSW,194,17.0,17.0,77,0.00,,SCT090,0.08,237.00,VWS V14.01,2013-07-20 20:43:00,
2013-07-20 16:48:00,82.9,74.6,30.00,SW,234,21.0,21.0,76,0.00,,SCT090,0.08,206.00,VWS V14.01,2013-07-20 20:48:00,
2013-07-20 16:53:00,82.5,74.9,30.00,SSW,213,17.0,23.0,78,0.00,,SCT090,0.08,171.00,VWS V14.01,2013-07-20 20:53:00,
2013-07-20 16:59:00,82.0,75.2,30.00,WSW,242,15.0,19.0,80,0.00,,SCT090,0.08,134.00,VWS V14.01,2013-07-20 20:59:00,
2013-07-20 17:04:00,81.6,75.6,30.00,SW,230,14.0,21.0,82,0.00,,SCT090,0.08,127.00,VWS V14.01,2013-07-20 21:04:00,
2013-07-20 17:09:00,81.2,75.6,30.00,SW,233,11.0,21.0,83,0.00,,SCT090,0.08,118.00,VWS V14.01,2013-07-20 21:09:00,
2013-07-20 17:14:00,81.0,75.0,30.00,South,182,15.0,20.0,82,0.00,,BKN040,0.08,97.00,VWS V14.01,2013-07-20 21:14:00,
2013-07-20 17:19:00,80.7,74.3,30.00,SSW,209,17.0,22.0,81,0.00,,BKN040,0.08,83.00,VWS V14.01,2013-07-20 21:19:00,
2013-07-20 17:24:00,80.5,74.1,30.00,SSW,200,12.0,20.0,81,0.00,,BKN040,0.08,90.00,VWS V14.01,2013-07-20 21:24:00,
2013-07-20 17:29:00,80.5,73.8,30.00,SSW,204,13.0,22.0,80,0.00,,BKN040,0.08,97.00,VWS V14.01,2013-07-20 21:29:00,
2013-07-20 17:34:00,80.6,73.5,30.00,SW,215,17.0,20.0,79,0.00,,BKN040,0.08,88.00,VWS V14.01,2013-07-20 21:34:00,
2013-07-20 17:39:00,80.7,73.6,30.00,SSW,213,15.0,19.0,79,0.00,,BKN040,0.08,93.00,VWS V14.01,2013-07-20 21:39:00,
2013-07-20 17:44:00,80.7,74.0,30.00,SW,229,9.0,18.0,80,0.00,,BKN040,0.08,93.00,VWS V14.01,2013-07-20 21:44:00,
2013-07-20 17:49:00,80.8,74.1,30.00,West,259,13.0,17.0,80,0.00,,BKN040,0.08,432.00,VWS V14.01,2013-07-20 21:49:00,
2013-07-20 17:54:00,81.4,74.6,29.99,SSW,200,16.0,19.0,80,0.00,,BKN040,0.08,113.00,VWS V14.01,2013-07-20 21:54:00,
2013-07-20 17:59:00,81.4,74.6,30.00,SW,219,11.0,17.0,80,0.00,,BKN040,0.08,79.00,VWS V14.01,2013-07-20 21:59:00,
2013-07-20 18:04:00,81.1,74.7,30.00,West,275,12.0,14.0,81,0.00,,BKN110,0.08,72.00,VWS V14.01,2013-07-20 22:04:00,
2013-07-20 18:10:00,81.0,75.0,30.00,SW,221,10.0,11.0,82,0.00,,BKN110,0.08,63.00,VWS V14.01,2013-07-20 22:10:00,
2013-07-20 18:15:00,80.9,74.9,30.00,WSW,248,8.0,21.0,82,0.00,,BKN110,0.08,60.00,VWS V14.01,2013-07-20 22:15:00,
2013-07-20 18:20:00,81.0,75.0,30.00,SW,225,9.0,15.0,82,0.00,,BKN110,0.08,56.00,VWS V14.01,2013-07-20 22:20:00,
2013-07-20 18:25:00,81.1,75.1,30.00,SW,235,4.0,9.0,82,0.00,,BKN110,0.08,58.00,VWS V14.01,2013-07-20 22:25:00,
2013-07-20 18:30:00,81.1,74.7,30.00,WSW,238,8.0,11.0,81,0.00,,BKN110,0.08,54.00,VWS V14.01,2013-07-20 22:30:00,
2013-07-20 18:35:00,81.1,73.6,30.00,WSW,257,3.0,10.0,78,0.00,,BKN110,0.08,60.00,VWS V14.01,2013-07-20 22:35:00,
2013-07-20 18:40:00,81.2,73.3,30.00,SSW,209,7.0,11.0,77,0.00,,BKN110,0.08,54.00,VWS V14.01,2013-07-20 22:40:00,
2013-07-20 18:45:00,81.3,73.4,30.00,SW,234,9.0,13.0,77,0.00,,BKN110,0.08,49.00,VWS V14.01,2013-07-20 22:45:00,
2013-07-20 18:50:00,81.4,73.5,30.00,South,188,6.0,8.0,77,0.00,,BKN110,0.08,49.00,VWS V14.01,2013-07-20 22:50:00,
2013-07-20 18:56:00,81.4,73.5,30.00,SW,229,6.0,12.0,77,0.00,,BKN110,0.08,51.00,VWS V14.01,2013-07-20 22:56:00,
2013-07-20 19:01:00,81.3,73.4,30.00,SSW,211,5.0,12.0,77,0.00,,BKN120,0.08,53.00,VWS V14.01,2013-07-20 23:01:00,
2013-07-20 19:06:00,81.3,73.8,30.00,WSW,244,16.0,16.0,78,0.00,,BKN120,0.08,49.00,VWS V14.01,2013-07-20 23:06:00,
2013-07-20 19:11:00,81.2,73.7,30.00,SSW,199,13.0,17.0,78,0.00,,BKN120,0.08,44.00,VWS V14.01,2013-07-20 23:11:00,
2013-07-20 19:16:00,81.3,73.8,29.99,SW,229,10.0,15.0,78,0.00,,BKN120,0.08,40.00,VWS V14.01,2013-07-20 23:16:00,
2013-07-20 19:21:00,81.4,73.1,29.99,SW,227,12.0,15.0,76,0.00,,BKN120,0.08,40.00,VWS V14.01,2013-07-20 23:21:00,
2013-07-20 19:26:00,81.4,72.3,29.99,SW,224,7.0,20.0,74,0.00,,BKN120,0.08,42.00,VWS V14.01,2013-07-20 23:26:00,
2013-07-20 19:31:00,81.6,73.7,29.99,SW,225,14.0,19.0,77,0.00,,BKN120,0.08,40.00,VWS V14.01,2013-07-20 23:31:00,
2013-07-20 19:36:00,81.5,74.4,29.99,South,189,13.0,16.0,79,0.00,,BKN120,0.08,39.00,VWS V14.01,2013-07-20 23:36:00,
2013-07-20 19:41:00,81.1,74.0,29.99,SW,218,14.0,16.0,79,0.00,,BKN120,0.08,39.00,VWS V14.01,2013-07-20 23:41:00,
2013-07-20 19:47:00,80.9,74.2,29.99,SSW,202,14.0,20.0,80,0.00,,BKN120,0.08,42.00,VWS V14.01,2013-07-20 23:47:00,
2013-07-20 19:52:00,80.8,74.4,29.99,SW,226,15.0,19.0,81,0.00,,BKN120,0.08,47.00,VWS V14.01,2013-07-20 23:52:00,
2013-07-20 19:56:00,80.8,74.4,30.00,SW,216,18.0,18.0,81,0.00,,BKN120,0.08,47.00,VWS V14.01,2013-07-20 23:56:00,
2013-07-20 20:01:00,80.7,74.7,30.00,SW,233,10.0,18.0,82,0.00,,FEW070,0.08,40.00,VWS V14.01,2013-07-21 00:01:00,
2013-07-20 20:06:00,80.7,74.7,30.00,WSW,240,11.0,17.0,82,0.00,,FEW070,0.08,32.00,VWS V14.01,2013-07-21 00:06:00,
2013-07-20 20:11:00,80.6,74.6,30.00,SSW,197,11.0,19.0,82,0.00,,FEW070,0.08,21.00,VWS V14.01,2013-07-21 00:11:00,
2013-07-20 20:16:00,80.6,74.6,30.00,SW,216,8.0,17.0,82,0.00,,FEW070,0.08,7.00,VWS V14.01,2013-07-21 00:16:00,
2013-07-20 20:21:00,80.6,74.6,30.00,SW,229,12.0,16.0,82,0.00,,FEW070,0.08,0.00,VWS V14.01,2013-07-21 00:21:00,
2013-07-20 20:27:00,80.6,74.6,30.00,SW,223,12.0,16.0,82,0.00,,FEW070,0.08,0.00,VWS V14.01,2013-07-21 00:27:00,
2013-07-20 20:32:00,80.6,74.6,30.00,SSW,213,9.0,14.0,82,0.00,,FEW070,0.08,0.00,VWS V14.01,2013-07-21 00:32:00,
2013-07-20 20:37:00,80.6,74.6,30.00,SSW,200,11.0,17.0,82,0.00,,FEW070,0.08,0.00,VWS V14.01,2013-07-21 00:37:00,
2013-07-20 20:42:00,80.6,75.0,30.00,SSW,203,14.0,14.0,83,0.00,,FEW070,0.08,0.00,VWS V14.01,2013-07-21 00:42:00,
2013-07-20 20:47:00,80.6,75.0,30.00,WSW,238,12.0,19.0,83,0.00,,FEW070,0.08,0.00,VWS V14.01,2013-07-21 00:47:00,
2013-07-20 20:53:00,80.5,74.9,30.00,SW,223,12.0,13.0,83,0.00,,FEW070,0.08,0.00,VWS V14.01,2013-07-21 00:53:00,
2013-07-20 20:58:00,80.5,75.2,30.01,SSW,209,7.0,10.0,84,0.00,,FEW070,0.08,0.00,VWS V14.01,2013-07-21 00:58:00,
2013-07-20 21:03:00,80.5,75.6,30.01,SSW,207,8.0,11.0,85,0.00,,FEW020,0.08,0.00,VWS V14.01,2013-07-21 01:03:00,
2013-07-20 21:08:00,80.4,75.5,30.01,SW,224,14.0,15.0,85,0.00,,FEW020,0.08,0.00,VWS V14.01,2013-07-21 01:08:00,
2013-07-20 21:13:00,80.4,75.5,30.02,SW,219,6.0,12.0,85,0.00,,FEW020,0.08,0.00,VWS V14.01,2013-07-21 01:13:00,
2013-07-20 21:18:00,80.4,75.5,30.02,SW,234,15.0,15.0,85,0.00,,FEW020,0.08,0.00,VWS V14.01,2013-07-21 01:18:00,
2013-07-20 21:23:00,80.4,75.5,30.02,SSW,211,7.0,13.0,85,0.00,,FEW020,0.08,0.00,VWS V14.01,2013-07-21 01:23:00,
2013-07-20 21:28:00,80.4,75.8,30.02,SSW,195,11.0,13.0,86,0.00,,FEW020,0.08,0.00,VWS V14.01,2013-07-21 01:28:00,
2013-07-20 21:33:00,80.5,75.6,30.02,SW,229,10.0,14.0,85,0.00,,FEW020,0.08,0.00,VWS V14.01,2013-07-21 01:33:00,
2013-07-20 21:38:00,80.5,75.6,30.02,SSW,194,10.0,16.0,85,0.00,,FEW020,0.08,0.00,VWS V14.01,2013-07-21 01:38:00,
2013-07-20 21:43:00,80.5,75.6,30.02,SW,236,9.0,12.0,85,0.00,,FEW020,0.08,0.00,VWS V14.01,2013-07-21 01:43:00,
2013-07-20 21:48:00,80.5,75.9,30.02,SW,215,8.0,10.0,86,0.00,,FEW020,0.08,0.00,VWS V14.01,2013-07-21 01:48:00,
2013-07-20 21:53:00,80.6,76.0,30.02,SSW,205,7.0,15.0,86,0.00,,FEW020,0.08,0.00,VWS V14.01,2013-07-21 01:53:00,
2013-07-20 21:59:00,80.5,76.3,30.02,SW,225,9.0,15.0,87,0.00,,FEW020,0.08,0.00,VWS V14.01,2013-07-21 01:59:00,
2013-07-20 22:04:00,80.5,75.9,30.02,SSW,193,10.0,14.0,86,0.00,,BKN016,0.08,0.00,VWS V14.01,2013-07-21 02:04:00,
2013-07-20 22:09:00,80.6,76.0,30.02,SW,229,10.0,15.0,86,0.00,,BKN016,0.08,0.00,VWS V14.01,2013-07-21 02:09:00,
2013-07-20 22:14:00,80.5,75.9,30.02,WSW,238,12.0,12.0,86,0.00,,BKN016,0.08,0.00,VWS V14.01,2013-07-21 02:14:00,
2013-07-20 22:19:00,80.5,75.9,30.03,WSW,240,10.0,14.0,86,0.00,,BKN016,0.08,0.00,VWS V14.01,2013-07-21 02:19:00,
2013-07-20 22:24:00,80.5,75.6,30.03,WSW,242,11.0,17.0,85,0.00,,BKN016,0.08,0.00,VWS V14.01,2013-07-21 02:24:00,
2013-07-20 22:29:00,80.5,75.9,30.03,SSW,197,6.0,15.0,86,0.00,,BKN016,0.08,0.00,VWS V14.01,2013-07-21 02:29:00,
2013-07-20 22:35:00,80.5,75.9,30.03,SW,217,9.0,14.0,86,0.00,,BKN016,0.08,0.00,VWS V14.01,2013-07-21 02:35:00,
2013-07-20 22:40:00,80.5,76.3,30.03,WSW,253,5.0,17.0,87,0.00,,BKN016,0.08,0.00,VWS V14.01,2013-07-21 02:40:00,
2013-07-20 22:45:00,80.5,75.9,30.03,SW,225,9.0,13.0,86,0.00,,BKN016,0.08,0.00,VWS V14.01,2013-07-21 02:45:00,
2013-07-20 22:50:00,80.6,76.0,30.02,WSW,239,11.0,13.0,86,0.00,,BKN016,0.08,0.00,VWS V14.01,2013-07-21 02:50:00,
2013-07-20 22:55:00,80.6,76.4,30.02,SSW,209,5.0,13.0,87,0.00,,BKN016,0.08,0.00,VWS V14.01,2013-07-21 02:55:00,
2013-07-20 23:00:00,80.7,76.8,30.02,SSW,213,10.0,13.0,88,0.00,,OVC026,0.08,0.00,VWS V14.01,2013-07-21 03:00:00,
2013-07-20 23:05:00,80.6,76.4,30.03,SSW,207,22.0,22.0,87,0.00,,OVC026,0.08,0.00,VWS V14.01,2013-07-21 03:05:00,
2013-07-20 23:10:00,80.1,73.4,30.03,SSW,200,16.0,22.0,80,0.00,,OVC026,0.08,0.00,VWS V14.01,2013-07-21 03:10:00,
2013-07-20 23:15:00,79.4,73.4,30.03,West,259,15.0,21.0,82,0.00,,OVC026,0.08,0.00,VWS V14.01,2013-07-21 03:15:00,
2013-07-20 23:20:00,78.9,73.3,30.04,SW,227,16.0,20.0,83,0.00,,BKN029,0.08,0.00,VWS V14.01,2013-07-21 03:20:00,
2013-07-20 23:25:00,78.7,73.8,30.04,SSW,194,13.0,19.0,85,0.00,,BKN029,0.08,0.00,VWS V14.01,2013-07-21 03:25:00,
2013-07-20 23:30:00,78.5,73.3,30.04,SW,220,11.0,21.0,84,0.00,,BKN029,0.08,0.00,VWS V14.01,2013-07-21 03:30:00,
2013-07-20 23:35:00,78.3,73.1,30.04,SW,230,13.0,18.0,84,0.00,,BKN029,0.08,0.00,VWS V14.01,2013-07-21 03:35:00,
2013-07-20 23:40:00,78.3,73.1,30.04,South,191,13.0,17.0,84,0.00,,BKN110,0.08,0.00,VWS V14.01,2013-07-21 03:40:00,
2013-07-20 23:45:00,78.3,73.1,30.03,SW,221,9.0,18.0,84,0.00,,BKN110,0.08,0.00,VWS V14.01,2013-07-21 03:45:00,
2013-07-20 23:50:00,78.4,73.2,30.03,SW,217,9.0,17.0,84,0.00,,BKN110,0.08,0.00,VWS V14.01,2013-07-21 03:50:00,
2013-07-20 23:55:00,78.4,73.2,30.03,South,190,8.0,14.0,84,0.00,,BKN110,0.08,0.00,VWS V14.01,2013-07-21 03:55:00,